Niagara Falls, NY

12:57 AM EDT on August 30, 2016 (GMT -0400)
Niagara Falls International

Weather History for KIAG - January, 2014

Change the Weather History Date:

Monday, January 6, 2014

  Actual Average Record
Temperature  
Mean Temperature 22 °F -  
Max Temperature 44 °F 30 °F 57 °F (1998)
Min Temperature 0 °F 19 °F 0 °F (2014)
Degree Days  
Heating Degree Days 42    
Moisture  
Dew Point 13 °F    
Average Humidity 76    
Maximum Humidity 93    
Minimum Humidity 60    
Precipitation  
Precipitation 0.24 in - - ()
Snow  
Snow 0.00 in - - ()
Snow Depth 1.00 in    
Sea Level Pressure  
Sea Level Pressure 29.60 in    
Wind  
Wind Speed 22 mph (WSW)    
Max Wind Speed 33 mph    
Max Gust Speed 47 mph    
Visibility 6 miles    
Events Rain , Snow    
Averages and records for this station are not official NWS values.
T = Trace of Precipitation, MM = Missing Value Source: NWS Daily Summary

Daily Weather History Graph

Daily Weather History Graph

Search for Another Location

Airport or City:

Trip Planner

Search our weather history database for the weather conditions in past years. The results will help you decide how hot, cold, wet, or windy it might be!

Date:

Astronomy

Jan. 06, 2014 Rise Set
Actual Time 7:47 AM EST 4:56 PM EST
Civil Twilight 7:15 AM EST 5:28 PM EST
Nautical Twilight 6:39 AM EST 6:03 PM EST
Astronomical Twilight 6:05 AM EST 6:38 PM EST
Moon 10:51 AM EST (1/6) 11:38 PM EST (1/6)
Length of Visible Light 10h 13m
Length of Day
9h 08m
Waxing Crescent, 34% of the Moon is Illuminated
Jan 6
Waxing Crescent
Jan 7
First Quarter
Jan 15
Full
Jan 24
Last Quarter
Jan 30
New

Hourly Weather History & Observations

Time (EST) Temp. Windchill Dew Point Humidity Pressure Visibility Wind Dir Wind Speed Gust Speed Precip Events Conditions
12:53 AM 35.1 °F 28.6 °F 33.1 °F 92% 29.31 in 3.0 mi SE 8.1 mph - 0.07 in Rain Light Rain
1:53 AM 39.9 °F 32.9 °F 37.9 °F 93% 29.25 in 5.0 mi SSE 11.5 mph - 0.02 in Rain Light Rain
2:53 AM 44.1 °F 36.2 °F 39.9 °F 85% 29.23 in 5.0 mi South 18.4 mph 23.0 mph 0.08 in Rain Rain
3:14 AM 44.6 °F 34.6 °F 41.0 °F 87% 29.22 in 4.0 mi SW 31.1 mph 46.0 mph 0.05 in Rain Rain
3:22 AM 44.6 °F 36.6 °F 39.2 °F 81% 29.22 in 7.0 mi SSW 19.6 mph 46.0 mph 0.06 in Rain Light Rain
3:53 AM 42.1 °F 33.6 °F 37.9 °F 85% 29.24 in 10.0 mi SSW 18.4 mph 28.8 mph 0.06 in Rain Light Rain
4:17 AM 39.2 °F 27.4 °F 35.6 °F 87% 29.22 in 10.0 mi SW 29.9 mph 38.0 mph 0.01 in Rain Light Rain
4:25 AM 37.4 °F 24.4 °F 35.6 °F 93% 29.22 in 10.0 mi SW 33.4 mph 46.0 mph 0.01 in Rain Light Rain
4:53 AM 36.0 °F 24.2 °F 32.0 °F 86% 29.29 in 10.0 mi SW 24.2 mph 33.4 mph 0.01 in   Overcast
5:11 AM 33.8 °F 21.0 °F 30.2 °F 87% 29.30 in 10.0 mi West 25.3 mph 33.4 mph N/A   Overcast
5:32 AM 32.0 °F 19.5 °F 26.6 °F 80% 29.31 in 10.0 mi West 21.9 mph 32.2 mph N/A   Overcast
5:53 AM 30.9 °F 18.4 °F 26.1 °F 82% 29.42 in 10.0 mi WSW 20.7 mph 33.4 mph N/A   Overcast
6:00 AM 30.2 °F 15.7 °F 24.8 °F 80% 29.39 in 10.0 mi WSW 27.6 mph 34.5 mph N/A   Overcast
6:53 AM 28.9 °F 15.1 °F 21.9 °F 75% 29.50 in 10.0 mi West 23.0 mph 36.8 mph N/A   Mostly Cloudy
7:03 AM 28.4 °F 13.3 °F 19.4 °F 69% 29.46 in 10.0 mi West 27.6 mph 36.8 mph N/A   Mostly Cloudy
7:53 AM 25.0 °F 8.9 °F 17.1 °F 72% 29.57 in 10.0 mi West 26.5 mph 39.1 mph N/A   Overcast
8:53 AM 25.0 °F 9.9 °F 16.0 °F 69% 29.63 in 10.0 mi West 23.0 mph 33.4 mph N/A   Mostly Cloudy
9:14 AM 24.8 °F 10.3 °F 17.6 °F 74% 29.59 in 10.0 mi West 20.7 mph 26.5 mph 0.00 in Snow Light Snow
9:30 AM 26.6 °F 13.1 °F 17.6 °F 69% 29.60 in 5.0 mi WSW 19.6 mph 34.5 mph 0.00 in Snow Light Snow
9:42 AM 24.8 °F 9.0 °F 19.4 °F 80% 29.61 in 5.0 mi WSW 25.3 mph 32.2 mph 0.00 in Snow Light Snow
9:53 AM 24.1 °F 8.3 °F 17.1 °F 75% 29.67 in 5.0 mi WSW 24.2 mph 33.4 mph 0.00 in Snow Light Snow
10:09 AM 24.8 °F 9.0 °F 17.6 °F 74% 29.62 in 7.0 mi West 25.3 mph 31.1 mph 0.00 in Snow Light Snow
10:41 AM 23.0 °F 8.3 °F 15.8 °F 74% 29.63 in 10.0 mi WSW 19.6 mph - 0.00 in   Mostly Cloudy
10:53 AM 23.0 °F 6.0 °F 15.1 °F 72% 29.68 in 10.0 mi WSW 27.6 mph 33.4 mph 0.00 in   Mostly Cloudy
11:53 AM 19.9 °F 2.5 °F 12.9 °F 74% 29.68 in 7.0 mi WSW 25.3 mph 35.7 mph N/A   Overcast
12:02 PM 19.4 °F 1.8 °F 12.2 °F 74% 29.62 in 5.0 mi WSW 25.3 mph 31.1 mph 0.00 in Snow Light Snow
12:41 PM 19.4 °F 4.1 °F 12.2 °F 74% 29.63 in 7.0 mi West 18.4 mph 28.8 mph 0.00 in   Overcast
12:53 PM 19.9 °F 4.3 °F 12.0 °F 71% 29.68 in 7.0 mi West 19.6 mph 28.8 mph 0.00 in   Overcast
1:10 PM 19.4 °F 1.1 °F 10.4 °F 68% 29.63 in 7.0 mi West 27.6 mph 34.5 mph 0.00 in Snow Light Snow
1:44 PM 17.6 °F -1.0 °F 8.6 °F 68% 29.65 in 7.0 mi West 26.5 mph 39.1 mph 0.00 in Snow Light Snow
1:53 PM 18.0 °F 0.2 °F 9.0 °F 68% 29.69 in 7.0 mi West 24.2 mph 33.4 mph 0.00 in Snow Light Snow
2:17 PM 17.6 °F -1.0 °F 8.6 °F 68% 29.65 in 10.0 mi West 26.5 mph 39.1 mph 0.00 in   Mostly Cloudy
2:49 PM 17.6 °F -0.6 °F 8.6 °F 68% 29.65 in 7.0 mi West 25.3 mph 32.2 mph 0.00 in Snow Light Snow
2:53 PM 18.0 °F 0.6 °F 8.1 °F 65% 29.70 in 7.0 mi West 23.0 mph 32.2 mph 0.00 in Snow Light Snow
2:58 PM 17.6 °F -0.3 °F 8.6 °F 68% 29.66 in 2.5 mi West 24.2 mph 32.2 mph 0.00 in Snow Light Snow
3:09 PM 17.6 °F 0.9 °F 10.4 °F 73% 29.66 in 1.2 mi WSW 20.7 mph 32.2 mph 0.00 in Snow Light Snow
3:29 PM 17.6 °F -0.6 °F 12.2 °F 79% 29.66 in 3.0 mi WSW 25.3 mph 32.2 mph 0.00 in Snow Light Snow
3:53 PM 15.1 °F -3.7 °F 7.0 °F 70% 29.72 in 7.0 mi WSW 24.2 mph 41.4 mph 0.00 in Snow Light Snow
4:05 PM 14.0 °F -5.1 °F 6.8 °F 73% 29.68 in 0.8 mi WSW 24.2 mph 38.0 mph 0.00 in Snow Light Snow
4:21 PM 12.2 °F -8.9 °F 8.6 °F 85% 29.68 in 0.5 mi WSW 28.8 mph 36.8 mph 0.00 in Snow Snow
4:29 PM 12.2 °F -8.2 °F 8.6 °F 85% 29.69 in 1.0 mi West 26.5 mph 36.8 mph 0.00 in Snow Light Snow
4:39 PM 12.2 °F -8.6 °F 8.6 °F 85% 29.70 in 0.5 mi West 27.6 mph 35.7 mph 0.00 in Snow Snow
4:53 PM 10.9 °F -9.2 °F 8.1 °F 88% 29.75 in 0.5 mi WSW 24.2 mph 38.0 mph 0.00 in Snow Snow
5:01 PM 10.4 °F -10.7 °F 8.6 °F 92% 29.70 in 0.5 mi West 26.5 mph 34.5 mph 0.00 in Snow Light Snow
5:12 PM 10.4 °F -10.3 °F 6.8 °F 85% 29.71 in 0.2 mi WSW 25.3 mph 40.3 mph 0.00 in Snow Light Snow
5:26 PM 8.6 °F -12.3 °F 6.8 °F 92% 29.72 in 1.0 mi WSW 24.2 mph 39.1 mph 0.00 in Snow Snow
5:38 PM 8.6 °F -14.1 °F 5.0 °F 85% 29.72 in 3.0 mi WSW 29.9 mph 42.6 mph 0.00 in Snow Light Snow
5:53 PM 8.1 °F -13.8 °F -0.9 °F 67% 29.79 in 6.0 mi WSW 26.5 mph 41.4 mph 0.00 in Snow Light Snow
6:04 PM 8.6 °F -12.3 °F -2.2 °F 62% 29.73 in 5.0 mi West 24.2 mph 34.5 mph 0.00 in Snow Blowing Snow
6:53 PM 5.0 °F -18.3 °F -5.1 °F 63% 29.82 in 10.0 mi West 27.6 mph 41.4 mph N/A   Scattered Clouds
7:53 PM 3.9 °F -19.0 °F -5.1 °F 66% 29.84 in 10.0 mi WSW 25.3 mph 41.4 mph N/A   Scattered Clouds
8:37 PM 5.0 °F -19.4 °F -4.0 °F 66% 29.77 in 8.0 mi WSW 31.1 mph 43.7 mph 0.00 in Snow Light Snow
8:53 PM 3.9 °F -20.5 °F -0.9 °F 80% 29.85 in 2.0 mi WSW 29.9 mph 44.9 mph 0.00 in Snow Light Snow
9:05 PM 3.2 °F -22.5 °F -0.4 °F 85% 29.78 in 2.5 mi WSW 33.4 mph 46.0 mph 0.00 in Snow Light Snow
9:18 PM 3.2 °F -21.5 °F -0.4 °F 85% 29.79 in 8.0 mi WSW 29.9 mph 40.3 mph 0.00 in Snow Light Snow
9:36 PM 3.2 °F -22.5 °F -5.8 °F 66% 29.79 in 10.0 mi WSW 33.4 mph 46.0 mph 0.00 in   Overcast
9:53 PM 3.0 °F -21.7 °F -6.0 °F 66% 29.87 in 10.0 mi West 29.9 mph 44.9 mph 0.00 in   Overcast
10:53 PM 1.9 °F -22.4 °F -9.0 °F 60% 29.90 in 10.0 mi West 27.6 mph 47.2 mph N/A   Overcast
11:53 PM -0.0 °F -26.3 °F -9.9 °F 63% 29.94 in 10.0 mi WSW 31.1 mph 43.7 mph N/A   Overcast